Miscellaneous Local Product
Issued by NWS Hastings, NE

Home | Current Version | Previous Version | Graphics & Text | Print | Product List | Glossary On
Versions: 1 2 3 4 5 6 7 8 9 10 11 12 13 14 15 16 17 18 19 20 21 22 23 24 25 26 27 28 29 30 31 32 33 34 35 36 37 38 39 40 41 42 43 44 45 46 47 48 49 50
000
AXUS43 KGID 240602
MISGRI

GID CWA HOURLY WEATHER ROUNDUP
NATIONAL WEATHER SERVICE HASTINGS NE
100 AM CDT TUE MAY 24 2016

NOTE: "FAIR" INDICATES FEW OR NO CLOUDS BELOW 12,000 FEET WITH NO
SIGNIFICANT WEATHER AND/OR OBSTRUCTIONS TO VISIBILITY.

...SOUTH CENTRAL NEBRASKA...

CITY           SKY/WX    TMP DP  RH WIND       PRES   REMARKS
GRAND ISLAND   CLEAR     59  58  96 SE5       29.83R
HASTINGS       CLOUDY    63  60  90 SE7       29.83S
KEARNEY        CLEAR     61  57  88 SE5       29.82F
ORD            PTCLDY    60  59  96 S5        29.82R FOG
YORK           CLOUDY    59  57  94 SE5       29.84R
AURORA         CLEAR     59  58  96 E5        29.83R
LEXINGTON      CLEAR     59  48  66 N7G18     29.85R
HOLDREGE       CLEAR     59  56  90 SE6       29.82F
HEBRON         CLOUDY    66  60  82 S8        29.84R THUNDER

...NEBRASKA PANHANDLE...

CITY           SKY/WX    TMP DP  RH WIND       PRES   REMARKS
CHADRON        PTCLDY    51  40  65 W9        29.86R
ALLIANCE       CLEAR     38  38 100 NW5       29.89R WCI  34
SCOTTSBLUFF    CLEAR     44  41  89 CALM      29.90S
SIDNEY         PTCLDY    43  40  89 NW8       29.91F

...WESTERN AND NORTH CENTRAL NEBRASKA...

CITY           SKY/WX    TMP DP  RH WIND       PRES   REMARKS
VALENTINE      CLEAR     53  43  68 NW7       29.82R
AINSWORTH      CLEAR     58  43  57 W3        29.82S
ONEILL         CLEAR     62  60  91 S8        29.80S
BROKEN BOW     CLEAR     54  45  71 NE3       29.84F
IMPERIAL       PTCLDY    52  45  77 N5        29.85F
NORTH PLATTE   CLOUDY    49  45  86 SW3       29.85S
MCCOOK         CLEAR     57  46  66 N14       29.83S

...EASTERN NEBRASKA...

CITY           SKY/WX    TMP DP  RH WIND       PRES   REMARKS
NORFOLK        CLEAR     59  58  96 S5        29.79F
SO SIOUX CITY    N/A    N/A N/A N/A MISG      29.81R
TEKAMAH        LGT RAIN  65  62  90 SE22G31   29.79F
COLUMBUS       CLEAR     59  50  72 SE8       29.84R
ALBION         CLEAR     59  56  89 SE3       29.82R
OMAHA EPPLEY   TSTM      66  63  90 CALM      29.85R
OFFUTT AFB     TSTM      66  64  94 S13G23    29.84S
MILLARD        RAIN      64  61  90 W3G18     29.85R
LINCOLN        CLOUDY    60  58  92 NE5       29.85S
NEBRASKA CITY  CLOUDY    67  61  81 S10       29.85F
BEATRICE       CLOUDY    67  60  78 N13       29.87R
FALLS CITY     CLOUDY    67  62  84 SE9       29.85F

...NORTHERN KANSAS...

CITY           SKY/WX    TMP DP  RH WIND       PRES   REMARKS
GOODLAND       PTCLDY    55  49  80 N6        29.86R
HILL CITY      TSTM      68  62  81 SE9G28    29.80R
NORTON         CLEAR     63  54  72 N8        29.79F
PHILLIPSBURG   PTCLDY    66  66 100 NE8       29.79R
SMITH CENTER   TSTM      63  63 100 E10       29.82F
BELOIT         CLOUDY    66  63  88 SE12      29.82R
HAYS           CLOUDY    70  61  73 E6        29.78R
RUSSELL        CLOUDY    68  65  90 SE10      29.76S
CONCORDIA      CLOUDY    67  62  84 S16       29.83S
SALINA         CLOUDY    69  65  86 SE12      29.80F
TOPEKA         PTCLDY    65  61  87 SE6       29.87F



USA.gov is the U.S. government's official web portal to all federal, state and local government web resources and services.